<?xml version="1.0" encoding="UTF-8" standalone="no" ?>
<gpx xmlns="http://www.topografix.com/GPX/1/1" xmlns:xsi="http://www.w3.org/2001/XMLSchema-instance" xsi:schemaLocation="http://www.topografix.com/GPX/1/1 http://www.topografix.com/GPX/1/1/gpx.xsd" version="1.1" creator="VisuGPX - https://www.visugpx.com">
  <metadata>
    <name>circuits VTT</name>
  </metadata>
  <trk>
    <name><![CDATA[01 La Route des Salins - TraceGps issued]]></name>
    <extensions>
      <line xmlns="http://www.topografix.com/GPX/gpx_style/0/2">
        <color>0000FF</color>
        <width>4</width>
      </line>
    </extensions>
    <trkseg>
      <trkpt lat="43.10846" lon="3.0899">
        <ele>0.349966</ele>
        <time>2009-11-04T14:46:32Z</time>
      </trkpt>
      <trkpt lat="43.11402" lon="3.09212">
        <ele>0.900008</ele>
        <time>2009-11-04T14:46:32Z</time>
      </trkpt>
      <trkpt lat="43.1143" lon="3.09219">
        <ele>1.157876</ele>
        <time>2009-11-04T14:46:32Z</time>
      </trkpt>
      <trkpt lat="43.11633" lon="3.08872">
        <ele>1.600028</ele>
        <time>2009-11-04T14:46:32Z</time>
      </trkpt>
      <trkpt lat="43.1163" lon="3.08826">
        <ele>0.923231</ele>
        <time>2009-11-04T14:46:32Z</time>
      </trkpt>
      <trkpt lat="43.11646" lon="3.08771">
        <ele>1.260063</ele>
        <time>2009-11-04T14:46:32Z</time>
      </trkpt>
      <trkpt lat="43.11684" lon="3.08744">
        <ele>1.549991</ele>
        <time>2009-11-04T14:46:32Z</time>
      </trkpt>
      <trkpt lat="43.1168" lon="3.08572">
        <ele>1.000077</ele>
        <time>2009-11-04T14:46:32Z</time>
      </trkpt>
      <trkpt lat="43.11675" lon="3.08526">
        <ele>0.873404</ele>
        <time>2009-11-04T14:46:32Z</time>
      </trkpt>
      <trkpt lat="43.11714" lon="3.08453">
        <ele>1.654625</ele>
        <time>2009-11-04T14:46:32Z</time>
      </trkpt>
      <trkpt lat="43.11746" lon="3.08386">
        <ele>1.651742</ele>
        <time>2009-11-04T14:46:32Z</time>
      </trkpt>
      <trkpt lat="43.11736" lon="3.08297">
        <ele>0.199934</ele>
        <time>2009-11-04T14:46:32Z</time>
      </trkpt>
      <trkpt lat="43.11733" lon="3.08226">
        <ele>0.948295</ele>
        <time>2009-11-04T14:46:32Z</time>
      </trkpt>
      <trkpt lat="43.1171" lon="3.08137">
        <ele>1.240056</ele>
        <time>2009-11-04T14:46:32Z</time>
      </trkpt>
      <trkpt lat="43.11721" lon="3.08033">
        <ele>3.326167</ele>
        <time>2009-11-04T14:46:32Z</time>
      </trkpt>
      <trkpt lat="43.11689" lon="3.07959">
        <ele>3.99008</ele>
        <time>2009-11-04T14:46:32Z</time>
      </trkpt>
      <trkpt lat="43.11664" lon="3.07891">
        <ele>3.046607</ele>
        <time>2009-11-04T14:46:32Z</time>
      </trkpt>
      <trkpt lat="43.11659" lon="3.07787">
        <ele>5.159403</ele>
        <time>2009-11-04T14:46:32Z</time>
      </trkpt>
      <trkpt lat="43.11649" lon="3.07713">
        <ele>5.752105</ele>
        <time>2009-11-04T14:46:32Z</time>
      </trkpt>
      <trkpt lat="43.11651" lon="3.07566">
        <ele>2.879902</ele>
        <time>2009-11-04T14:46:32Z</time>
      </trkpt>
      <trkpt lat="43.11661" lon="3.07413">
        <ele>1.320043</ele>
        <time>2009-11-04T14:46:32Z</time>
      </trkpt>
      <trkpt lat="43.11677" lon="3.07324">
        <ele>1</ele>
        <time>2009-11-04T14:46:32Z</time>
      </trkpt>
      <trkpt lat="43.11658" lon="3.07235">
        <ele>1.099933</ele>
        <time>2009-11-04T14:46:32Z</time>
      </trkpt>
      <trkpt lat="43.11622" lon="3.07164">
        <ele>1.721573</ele>
        <time>2009-11-04T14:46:32Z</time>
      </trkpt>
      <trkpt lat="43.11547" lon="3.07135">
        <ele>1.259961</ele>
        <time>2009-11-04T14:46:32Z</time>
      </trkpt>
      <trkpt lat="43.11462" lon="3.07061">
        <ele>3.600261</ele>
        <time>2009-11-04T14:46:32Z</time>
      </trkpt>
      <trkpt lat="43.11396" lon="3.07014">
        <ele>2.769377</ele>
        <time>2009-11-04T14:46:32Z</time>
      </trkpt>
      <trkpt lat="43.11306" lon="3.06881">
        <ele>1.399902</ele>
        <time>2009-11-04T14:46:32Z</time>
      </trkpt>
      <trkpt lat="43.11124" lon="3.06597">
        <ele>0.300082</ele>
        <time>2009-11-04T14:46:32Z</time>
      </trkpt>
      <trkpt lat="43.11071" lon="3.06574">
        <ele>1</ele>
        <time>2009-11-04T14:46:32Z</time>
      </trkpt>
      <trkpt lat="43.1098" lon="3.0642">
        <ele>1.696626</ele>
        <time>2009-11-04T14:46:32Z</time>
      </trkpt>
      <trkpt lat="43.10987" lon="3.06331">
        <ele>1</ele>
        <time>2009-11-04T14:46:32Z</time>
      </trkpt>
      <trkpt lat="43.10847" lon="3.06342">
        <ele>2.550177</ele>
        <time>2009-11-04T14:46:32Z</time>
      </trkpt>
      <trkpt lat="43.10796" lon="3.06424">
        <ele>9.129521</ele>
        <time>2009-11-04T14:46:32Z</time>
      </trkpt>
      <trkpt lat="43.10775" lon="3.06433">
        <ele>10.008287</ele>
        <time>2009-11-04T14:46:32Z</time>
      </trkpt>
      <trkpt lat="43.10753" lon="3.06374">
        <ele>8.941398</ele>
        <time>2009-11-04T14:46:32Z</time>
      </trkpt>
      <trkpt lat="43.10627" lon="3.06284">
        <ele>12.600494</ele>
        <time>2009-11-04T14:46:32Z</time>
      </trkpt>
      <trkpt lat="43.10546" lon="3.0627">
        <ele>13.080613</ele>
        <time>2009-11-04T14:46:32Z</time>
      </trkpt>
      <trkpt lat="43.10581" lon="3.06436">
        <ele>29.440004</ele>
        <time>2009-11-04T14:46:32Z</time>
      </trkpt>
      <trkpt lat="43.10603" lon="3.06578">
        <ele>29.419632</ele>
        <time>2009-11-04T14:46:32Z</time>
      </trkpt>
      <trkpt lat="43.10549" lon="3.06602">
        <ele>29.841173</ele>
        <time>2009-11-04T14:46:32Z</time>
      </trkpt>
      <trkpt lat="43.10459" lon="3.0657">
        <ele>40.899834</ele>
        <time>2009-11-04T14:46:32Z</time>
      </trkpt>
      <trkpt lat="43.10337" lon="3.06685">
        <ele>38.959923</ele>
        <time>2009-11-04T14:46:32Z</time>
      </trkpt>
      <trkpt lat="43.10332" lon="3.06795">
        <ele>36.100189</ele>
        <time>2009-11-04T14:46:32Z</time>
      </trkpt>
      <trkpt lat="43.10313" lon="3.06917">
        <ele>32.299774</ele>
        <time>2009-11-04T14:46:32Z</time>
      </trkpt>
      <trkpt lat="43.10275" lon="3.06991">
        <ele>29.501135</ele>
        <time>2009-11-04T14:46:32Z</time>
      </trkpt>
      <trkpt lat="43.10249" lon="3.07088">
        <ele>27.980019</ele>
        <time>2009-11-04T14:46:32Z</time>
      </trkpt>
      <trkpt lat="43.10083" lon="3.06988">
        <ele>24.999882</ele>
        <time>2009-11-04T14:46:32Z</time>
      </trkpt>
      <trkpt lat="43.09997" lon="3.06981">
        <ele>28.309284</ele>
        <time>2009-11-04T14:46:32Z</time>
      </trkpt>
      <trkpt lat="43.09943" lon="3.06937">
        <ele>30.400795</ele>
        <time>2009-11-04T14:46:32Z</time>
      </trkpt>
      <trkpt lat="43.09886" lon="3.06869">
        <ele>31.76037</ele>
        <time>2009-11-04T14:46:32Z</time>
      </trkpt>
      <trkpt lat="43.09838" lon="3.06816">
        <ele>32.631687</ele>
        <time>2009-11-04T14:46:32Z</time>
      </trkpt>
      <trkpt lat="43.09783" lon="3.06788">
        <ele>32.500107</ele>
        <time>2009-11-04T14:46:32Z</time>
      </trkpt>
      <trkpt lat="43.09726" lon="3.06772">
        <ele>32.223328</ele>
        <time>2009-11-04T14:46:32Z</time>
      </trkpt>
      <trkpt lat="43.0968" lon="3.06774">
        <ele>30.399841</ele>
        <time>2009-11-04T14:46:32Z</time>
      </trkpt>
      <trkpt lat="43.09577" lon="3.06785">
        <ele>27.700195</ele>
        <time>2009-11-04T14:46:32Z</time>
      </trkpt>
      <trkpt lat="43.09474" lon="3.06772">
        <ele>24.720039</ele>
        <time>2009-11-04T14:46:32Z</time>
      </trkpt>
      <trkpt lat="43.09427" lon="3.0679">
        <ele>25.096371</ele>
        <time>2009-11-04T14:46:32Z</time>
      </trkpt>
      <trkpt lat="43.09396" lon="3.06786">
        <ele>23.947004</ele>
        <time>2009-11-04T14:46:32Z</time>
      </trkpt>
      <trkpt lat="43.09351" lon="3.06795">
        <ele>22.478052</ele>
        <time>2009-11-04T14:46:32Z</time>
      </trkpt>
      <trkpt lat="43.0934" lon="3.06752">
        <ele>21.125101</ele>
        <time>2009-11-04T14:46:32Z</time>
      </trkpt>
      <trkpt lat="43.09317" lon="3.06739">
        <ele>20.399921</ele>
        <time>2009-11-04T14:46:32Z</time>
      </trkpt>
      <trkpt lat="43.09275" lon="3.06717">
        <ele>19.261774</ele>
        <time>2009-11-04T14:46:32Z</time>
      </trkpt>
      <trkpt lat="43.09223" lon="3.06707">
        <ele>19.39994</ele>
        <time>2009-11-04T14:46:32Z</time>
      </trkpt>
      <trkpt lat="43.09219" lon="3.06658">
        <ele>20.843122</ele>
        <time>2009-11-04T14:46:32Z</time>
      </trkpt>
      <trkpt lat="43.0912" lon="3.06602">
        <ele>18.92984</ele>
        <time>2009-11-04T14:46:32Z</time>
      </trkpt>
      <trkpt lat="43.09035" lon="3.06582">
        <ele>16.520021</ele>
        <time>2009-11-04T14:46:32Z</time>
      </trkpt>
      <trkpt lat="43.08995" lon="3.0657">
        <ele>14.980729</ele>
        <time>2009-11-04T14:46:32Z</time>
      </trkpt>
      <trkpt lat="43.08945" lon="3.06514">
        <ele>12.999731</ele>
        <time>2009-11-04T14:46:32Z</time>
      </trkpt>
      <trkpt lat="43.08838" lon="3.06482">
        <ele>11.599681</ele>
        <time>2009-11-04T14:46:32Z</time>
      </trkpt>
      <trkpt lat="43.08713" lon="3.06437">
        <ele>15.106702</ele>
        <time>2009-11-04T14:46:32Z</time>
      </trkpt>
      <trkpt lat="43.08649" lon="3.06437">
        <ele>12.500087</ele>
        <time>2009-11-04T14:46:32Z</time>
      </trkpt>
      <trkpt lat="43.08599" lon="3.06433">
        <ele>8.404567</ele>
        <time>2009-11-04T14:46:32Z</time>
      </trkpt>
      <trkpt lat="43.08546" lon="3.06454">
        <ele>5.160065</ele>
        <time>2009-11-04T14:46:32Z</time>
      </trkpt>
      <trkpt lat="43.0852" lon="3.0649">
        <ele>4.728229</ele>
        <time>2009-11-04T14:46:32Z</time>
      </trkpt>
      <trkpt lat="43.08483" lon="3.06508">
        <ele>4.150037</ele>
        <time>2009-11-04T14:46:32Z</time>
      </trkpt>
      <trkpt lat="43.08444" lon="3.06802">
        <ele>1.836167</ele>
        <time>2009-11-04T14:46:32Z</time>
      </trkpt>
      <trkpt lat="43.08436" lon="3.06872">
        <ele>1.8645</ele>
        <time>2009-11-04T14:46:32Z</time>
      </trkpt>
      <trkpt lat="43.08402" lon="3.06921">
        <ele>1.32724</ele>
        <time>2009-11-04T14:46:32Z</time>
      </trkpt>
      <trkpt lat="43.08326" lon="3.06877">
        <ele>0.248297</ele>
        <time>2009-11-04T14:46:32Z</time>
      </trkpt>
      <trkpt lat="43.08211" lon="3.06835">
        <ele>0.10006</ele>
        <time>2009-11-04T14:46:32Z</time>
      </trkpt>
      <trkpt lat="43.08156" lon="3.06914">
        <ele>1</ele>
        <time>2009-11-04T14:46:32Z</time>
      </trkpt>
      <trkpt lat="43.0809" lon="3.06852">
        <ele>0.88003</ele>
        <time>2009-11-04T14:46:32Z</time>
      </trkpt>
      <trkpt lat="43.08013" lon="3.069">
        <ele>1</ele>
        <time>2009-11-04T14:46:32Z</time>
      </trkpt>
      <trkpt lat="43.07958" lon="3.0701">
        <ele>0.900038</ele>
        <time>2009-11-04T14:46:32Z</time>
      </trkpt>
      <trkpt lat="43.07963" lon="3.07078">
        <ele>1</ele>
        <time>2009-11-04T14:46:32Z</time>
      </trkpt>
      <trkpt lat="43.07965" lon="3.07117">
        <ele>1</ele>
        <time>2009-11-04T14:46:32Z</time>
      </trkpt>
      <trkpt lat="43.07999" lon="3.07139">
        <ele>1</ele>
        <time>2009-11-04T14:46:32Z</time>
      </trkpt>
      <trkpt lat="43.08039" lon="3.07161">
        <ele>1</ele>
        <time>2009-11-04T14:46:32Z</time>
      </trkpt>
      <trkpt lat="43.08091" lon="3.0718">
        <ele>1</ele>
        <time>2009-11-04T14:46:32Z</time>
      </trkpt>
      <trkpt lat="43.08158" lon="3.07203">
        <ele>1</ele>
        <time>2009-11-04T14:46:32Z</time>
      </trkpt>
      <trkpt lat="43.08209" lon="3.0724">
        <ele>1</ele>
        <time>2009-11-04T14:46:32Z</time>
      </trkpt>
      <trkpt lat="43.08312" lon="3.07303">
        <ele>1</ele>
        <time>2009-11-04T14:46:32Z</time>
      </trkpt>
      <trkpt lat="43.08415" lon="3.07362">
        <ele>1</ele>
        <time>2009-11-04T14:46:32Z</time>
      </trkpt>
      <trkpt lat="43.08639" lon="3.07497">
        <ele>1</ele>
        <time>2009-11-04T14:46:32Z</time>
      </trkpt>
      <trkpt lat="43.0869" lon="3.0754">
        <ele>1</ele>
        <time>2009-11-04T14:46:32Z</time>
      </trkpt>
      <trkpt lat="43.08741" lon="3.0759">
        <ele>0.576579</ele>
        <time>2009-11-04T14:46:32Z</time>
      </trkpt>
      <trkpt lat="43.08761" lon="3.07624">
        <ele>0.126596</ele>
        <time>2009-11-04T14:46:32Z</time>
      </trkpt>
      <trkpt lat="43.08768" lon="3.07685">
        <time>2009-11-04T14:46:32Z</time>
      </trkpt>
      <trkpt lat="43.08772" lon="3.07744">
        <ele>0.098842</ele>
        <time>2009-11-04T14:46:32Z</time>
      </trkpt>
      <trkpt lat="43.08787" lon="3.07802">
        <ele>0.869203</ele>
        <time>2009-11-04T14:46:32Z</time>
      </trkpt>
      <trkpt lat="43.08814" lon="3.07848">
        <ele>1.648126</ele>
        <time>2009-11-04T14:46:32Z</time>
      </trkpt>
      <trkpt lat="43.08836" lon="3.07907">
        <ele>2.953926</ele>
        <time>2009-11-04T14:46:32Z</time>
      </trkpt>
      <trkpt lat="43.08858" lon="3.07972">
        <ele>3.143169</ele>
        <time>2009-11-04T14:46:32Z</time>
      </trkpt>
      <trkpt lat="43.08641" lon="3.09142">
        <ele>1</ele>
        <time>2009-11-04T14:46:32Z</time>
      </trkpt>
      <trkpt lat="43.08629" lon="3.09173">
        <ele>1</ele>
        <time>2009-11-04T14:46:32Z</time>
      </trkpt>
      <trkpt lat="43.08622" lon="3.09191">
        <ele>1</ele>
        <time>2009-11-04T14:46:32Z</time>
      </trkpt>
      <trkpt lat="43.08727" lon="3.09312">
        <ele>1</ele>
        <time>2009-11-04T14:46:32Z</time>
      </trkpt>
      <trkpt lat="43.0872" lon="3.09919">
        <ele>1</ele>
        <time>2009-11-04T14:46:32Z</time>
      </trkpt>
      <trkpt lat="43.08817" lon="3.10116">
        <ele>0.250063</ele>
        <time>2009-11-04T14:46:32Z</time>
      </trkpt>
      <trkpt lat="43.08897" lon="3.10221">
        <ele>0.439921</ele>
        <time>2009-11-04T14:46:32Z</time>
      </trkpt>
      <trkpt lat="43.08982" lon="3.10314">
        <ele>1</ele>
        <time>2009-11-04T14:46:32Z</time>
      </trkpt>
      <trkpt lat="43.09084" lon="3.10395">
        <ele>1</ele>
        <time>2009-11-04T14:46:32Z</time>
      </trkpt>
      <trkpt lat="43.09196" lon="3.10489">
        <ele>1</ele>
        <time>2009-11-04T14:46:32Z</time>
      </trkpt>
      <trkpt lat="43.09286" lon="3.10539">
        <ele>1</ele>
        <time>2009-11-04T14:46:32Z</time>
      </trkpt>
      <trkpt lat="43.09398" lon="3.10577">
        <ele>1</ele>
        <time>2009-11-04T14:46:32Z</time>
      </trkpt>
      <trkpt lat="43.0946" lon="3.10584">
        <ele>1</ele>
        <time>2009-11-04T14:46:32Z</time>
      </trkpt>
      <trkpt lat="43.09515" lon="3.10487">
        <ele>1</ele>
        <time>2009-11-04T14:46:32Z</time>
      </trkpt>
      <trkpt lat="43.09538" lon="3.10432">
        <ele>1</ele>
        <time>2009-11-04T14:46:32Z</time>
      </trkpt>
      <trkpt lat="43.09414" lon="3.10011">
        <ele>0.226717</ele>
        <time>2009-11-04T14:46:32Z</time>
      </trkpt>
      <trkpt lat="43.09341" lon="3.09786">
        <ele>0.001494</ele>
        <time>2009-11-04T14:46:32Z</time>
      </trkpt>
      <trkpt lat="43.0935" lon="3.09737">
        <ele>0.559979</ele>
        <time>2009-11-04T14:46:32Z</time>
      </trkpt>
      <trkpt lat="43.09564" lon="3.09354">
        <ele>1</ele>
        <time>2009-11-04T14:46:32Z</time>
      </trkpt>
      <trkpt lat="43.09735" lon="3.09295">
        <ele>0.10003</ele>
        <time>2009-11-04T14:46:32Z</time>
      </trkpt>
      <trkpt lat="43.09972" lon="3.09396">
        <ele>0.500034</ele>
        <time>2009-11-04T14:46:32Z</time>
      </trkpt>
      <trkpt lat="43.09999" lon="3.09402">
        <ele>0.399935</ele>
        <time>2009-11-04T14:46:32Z</time>
      </trkpt>
      <trkpt lat="43.10031" lon="3.09366">
        <ele>0.600049</ele>
        <time>2009-11-04T14:46:32Z</time>
      </trkpt>
      <trkpt lat="43.10028" lon="3.09151">
        <ele>1</ele>
        <time>2009-11-04T14:46:32Z</time>
      </trkpt>
      <trkpt lat="43.10032" lon="3.09108">
        <ele>1</ele>
        <time>2009-11-04T14:46:32Z</time>
      </trkpt>
      <trkpt lat="43.10101" lon="3.08889">
        <ele>1</ele>
        <time>2009-11-04T14:46:32Z</time>
      </trkpt>
      <trkpt lat="43.10106" lon="3.08858">
        <ele>1</ele>
        <time>2009-11-04T14:46:32Z</time>
      </trkpt>
      <trkpt lat="43.10111" lon="3.08778">
        <ele>1</ele>
        <time>2009-11-04T14:46:32Z</time>
      </trkpt>
      <trkpt lat="43.10125" lon="3.08723">
        <ele>1</ele>
        <time>2009-11-04T14:46:32Z</time>
      </trkpt>
      <trkpt lat="43.10211" lon="3.08596">
        <ele>0.88002</ele>
        <time>2009-11-04T14:46:32Z</time>
      </trkpt>
      <trkpt lat="43.10293" lon="3.0845">
        <ele>2.799999</ele>
        <time>2009-11-04T14:46:32Z</time>
      </trkpt>
      <trkpt lat="43.10329" lon="3.08432">
        <ele>2.669983</ele>
        <time>2009-11-04T14:46:32Z</time>
      </trkpt>
      <trkpt lat="43.10357" lon="3.08383">
        <ele>4.349837</ele>
        <time>2009-11-04T14:46:32Z</time>
      </trkpt>
      <trkpt lat="43.10536" lon="3.08477">
        <ele>1.499953</ele>
        <time>2009-11-04T14:46:32Z</time>
      </trkpt>
      <trkpt lat="43.10549" lon="3.0841">
        <ele>1.100127</ele>
        <time>2009-11-04T14:46:32Z</time>
      </trkpt>
      <trkpt lat="43.10708" lon="3.08277">
        <ele>1.699828</ele>
        <time>2009-11-04T14:46:32Z</time>
      </trkpt>
      <trkpt lat="43.10743" lon="3.08296">
        <ele>3.499999</ele>
        <time>2009-11-04T14:46:32Z</time>
      </trkpt>
      <trkpt lat="43.10806" lon="3.08297">
        <ele>1.899924</ele>
        <time>2009-11-04T14:46:32Z</time>
      </trkpt>
      <trkpt lat="43.10842" lon="3.08334">
        <ele>2.100121</ele>
        <time>2009-11-04T14:46:32Z</time>
      </trkpt>
      <trkpt lat="43.10869" lon="3.0839">
        <ele>1.47012</ele>
        <time>2009-11-04T14:46:32Z</time>
      </trkpt>
      <trkpt lat="43.10882" lon="3.08451">
        <ele>1.519961</ele>
        <time>2009-11-04T14:46:32Z</time>
      </trkpt>
      <trkpt lat="43.1089" lon="3.08488">
        <ele>1.499805</ele>
        <time>2009-11-04T14:46:32Z</time>
      </trkpt>
      <trkpt lat="43.10895" lon="3.08531">
        <ele>1.299914</ele>
        <time>2009-11-04T14:46:32Z</time>
      </trkpt>
      <trkpt lat="43.10867" lon="3.08604">
        <ele>1.219739</ele>
        <time>2009-11-04T14:46:32Z</time>
      </trkpt>
      <trkpt lat="43.10858" lon="3.08666">
        <ele>0.899992</ele>
        <time>2009-11-04T14:46:32Z</time>
      </trkpt>
      <trkpt lat="43.10808" lon="3.08726">
        <ele>1.400162</ele>
        <time>2009-11-04T14:46:32Z</time>
      </trkpt>
      <trkpt lat="43.10785" lon="3.08775">
        <ele>1.620089</ele>
        <time>2009-11-04T14:46:32Z</time>
      </trkpt>
      <trkpt lat="43.10785" lon="3.08806">
        <ele>1.16984</ele>
        <time>2009-11-04T14:46:32Z</time>
      </trkpt>
      <trkpt lat="43.10846" lon="3.0899">
        <ele>0.349966</ele>
        <time>2009-11-04T14:46:32Z</time>
      </trkpt>
    </trkseg>
  </trk>
</gpx>